This is the latest recevied weather packets stored in our database for station/object K5SVV. If no packets are shown the sender has not sent any weather packets the latest 10 day(s).
| Time | Temp. | Humidity | Pressure | Rain* | Wind** | Luminosity | Snow |
|---|---|---|---|---|---|---|---|
| 1777668490 | 15° C | 69% | 1014.8 hPa | 0 mm | - | 300 W/m² | - |
| 1777668187 | 15° C | 69% | 1014.6 hPa | 0 mm | - | 266 W/m² | - |
| 1777667883 | 15° C | 69% | 1014.5 hPa | 0 mm | - | 188 W/m² | - |
| 1777667581 | 15° C | 68% | 1014.9 hPa | 0 mm | - | 208 W/m² | - |
| 1777667277 | 15° C | 70% | 1014.6 hPa | 0 mm | - | 141 W/m² | - |
| 1777666974 | 15° C | 71% | 1014.7 hPa | 0 mm | - | 127 W/m² | - |
| 1777666671 | 15° C | 70% | 1015 hPa | 0 mm | - | 127 W/m² | - |
| 1777666368 | 15° C | 71% | 1015 hPa | 0 mm | - | 134 W/m² | - |
| 1777666065 | 15° C | 71% | 1015.4 hPa | 0 mm | - | 194 W/m² | - |
| 1777665762 | 15° C | 72% | 1015.2 hPa | 0 mm | - | 196 W/m² | - |
| 1777665459 | 15° C | 68% | 1015.3 hPa | 0 mm | - | 166 W/m² | - |
| 1777665155 | 15° C | 69% | 1015.2 hPa | 0 mm | - | 146 W/m² | - |
| 1777664851 | 15° C | 67% | 1015.4 hPa | 0 mm | - | 128 W/m² | - |
| 1777664547 | 15° C | 69% | 1015.7 hPa | 0 mm | - | 99 W/m² | - |
| 1777664244 | 15° C | 68% | 1015.3 hPa | 0 mm | - | 101 W/m² | - |
| 1777663943 | 15° C | 69% | 1015.4 hPa | 0 mm | - | 110 W/m² | - |
| 1777663639 | 15° C | 69% | 1014.5 hPa | 0 mm | - | 145 W/m² | - |
| 1777663336 | 15° C | 69% | 1014.5 hPa | 0 mm | - | 164 W/m² | - |
| 1777663034 | 15° C | 68% | 1014.2 hPa | 0 mm | - | 208 W/m² | - |
| 1777662731 | 15° C | 66% | 1014.1 hPa | 0 mm | - | 196 W/m² | - |
| 1777662427 | 15° C | 69% | 1014.1 hPa | 0 mm | - | 203 W/m² | - |
| 1777662123 | 15° C | 68% | 1014.1 hPa | 0 mm | - | 148 W/m² | - |
| 1777661819 | 15° C | 66% | 1014.7 hPa | 0 mm | - | 133 W/m² | - |
| 1777661515 | 15° C | 67% | 1015 hPa | 0 mm | - | 155 W/m² | - |
| 1777661210 | 15° C | 66% | 1014.9 hPa | 0 mm | - | 196 W/m² | - |
* Rain latest hour (hover to see other rain measurements)
** Current wind speed in m/s (hover to see current wind gust speed)